Time,TemperatureF,DewpointF,PressureIn,WindDirection,WindDirectionDegrees,WindSpeedMPH,WindSpeedGustMPH,Humidity,HourlyPrecipIn,Conditions,Clouds,dailyrainin,SoftwareType,DateUTC
2013-02-08 00:02:00,38.0,33.0,29.97,East,90,0.0,0.0,83,0.00,,,0.00,,2013-02-08 05:02:00,
2013-02-08 00:12:00,38.0,33.0,29.97,East,90,0.0,0.0,83,0.00,,,0.00,,2013-02-08 05:12:00,
2013-02-08 00:22:00,37.0,32.0,29.97,East,90,0.0,0.0,83,0.00,,,0.00,,2013-02-08 05:22:00,
2013-02-08 00:32:00,37.0,32.0,29.97,NNW,336,0.0,0.0,83,0.00,,,0.00,,2013-02-08 05:32:00,
2013-02-08 00:42:00,37.0,32.0,29.97,NNW,336,0.0,0.0,83,0.00,,,0.00,,2013-02-08 05:42:00,
2013-02-08 00:52:00,37.0,33.0,29.96,NNW,339,0.0,0.0,84,0.00,,,0.00,,2013-02-08 05:52:00,
2013-02-08 01:01:00,37.0,33.0,29.96,NNW,339,0.0,0.0,85,0.00,,,0.00,,2013-02-08 06:01:00,
2013-02-08 01:11:00,37.0,33.0,29.96,NNW,339,0.0,0.0,85,0.00,,,0.00,,2013-02-08 06:11:00,
2013-02-08 01:21:00,37.0,33.0,29.95,NE,41,0.0,0.0,85,0.00,,,0.00,,2013-02-08 06:21:00,
2013-02-08 01:32:00,37.0,33.0,29.94,South,183,0.0,0.0,84,0.00,,,0.00,,2013-02-08 06:32:00,
2013-02-08 01:42:00,37.0,33.0,29.94,South,183,0.0,0.0,84,0.00,,,0.00,,2013-02-08 06:42:00,
2013-02-08 01:52:00,37.0,33.0,29.94,ENE,76,0.0,0.0,84,0.00,,,0.00,,2013-02-08 06:52:00,
2013-02-08 02:01:00,37.0,32.0,29.93,WSW,242,3.0,0.0,83,0.00,,,0.00,,2013-02-08 07:01:00,
2013-02-08 02:11:00,37.0,33.0,29.93,WSW,253,0.0,0.0,84,0.00,,,0.00,,2013-02-08 07:11:00,
2013-02-08 02:21:00,37.0,33.0,29.93,WSW,253,0.0,0.0,84,0.00,,,0.00,,2013-02-08 07:21:00,
2013-02-08 02:32:00,37.0,33.0,29.91,East,96,0.0,0.0,84,0.00,,,0.00,,2013-02-08 07:32:00,
2013-02-08 02:42:00,37.0,33.0,29.91,WSW,246,1.0,3.0,84,0.00,,,0.00,,2013-02-08 07:42:00,
2013-02-08 02:51:00,37.0,33.0,29.91,WSW,246,1.0,3.0,84,0.00,,,0.00,,2013-02-08 07:51:00,
2013-02-08 03:01:00,37.0,33.0,29.91,SSE,158,0.0,0.0,85,0.00,,,0.00,,2013-02-08 08:01:00,
2013-02-08 03:11:00,37.0,33.0,29.91,South,183,0.0,0.0,85,0.00,,,0.00,,2013-02-08 08:11:00,
2013-02-08 03:21:00,37.0,33.0,29.91,South,183,0.0,0.0,85,0.00,,,0.00,,2013-02-08 08:21:00,
2013-02-08 03:32:00,37.0,33.0,29.91,ESE,120,1.0,0.0,85,0.00,,,0.00,,2013-02-08 08:32:00,
2013-02-08 03:42:00,37.0,33.0,29.91,ESE,120,1.0,0.0,85,0.00,,,0.00,,2013-02-08 08:42:00,
2013-02-08 03:52:00,37.0,33.0,29.90,East,97,2.0,0.0,85,0.00,,,0.00,,2013-02-08 08:52:00,
2013-02-08 04:03:00,37.0,33.0,29.89,ESE,105,3.0,3.0,86,0.00,,,0.00,,2013-02-08 09:03:00,
2013-02-08 04:11:00,37.0,33.0,29.89,ESE,105,3.0,3.0,86,0.00,,,0.00,,2013-02-08 09:11:00,
2013-02-08 04:21:00,37.0,34.0,29.88,ESE,108,0.0,0.0,87,0.00,,,0.00,,2013-02-08 09:21:00,
2013-02-08 04:32:00,37.0,33.0,29.88,NE,46,0.0,0.0,86,0.00,,,0.00,,2013-02-08 09:32:00,
2013-02-08 04:42:00,37.0,33.0,29.88,NE,46,0.0,0.0,86,0.00,,,0.00,,2013-02-08 09:42:00,
2013-02-08 04:52:00,37.0,34.0,29.88,NE,46,0.0,0.0,87,0.00,,,0.00,,2013-02-08 09:52:00,
2013-02-08 05:01:00,37.0,34.0,29.87,SSE,155,0.0,0.0,88,0.00,,,0.00,,2013-02-08 10:01:00,
2013-02-08 05:12:00,37.0,34.0,29.87,SSE,155,0.0,0.0,88,0.00,,,0.00,,2013-02-08 10:12:00,
2013-02-08 05:22:00,36.0,33.0,29.88,East,98,3.0,3.0,89,0.00,,,0.00,,2013-02-08 10:22:00,
2013-02-08 05:32:00,36.0,33.0,29.87,ESE,107,0.0,0.0,88,0.00,,,0.00,,2013-02-08 10:32:00,
2013-02-08 05:42:00,36.0,33.0,29.87,ESE,107,0.0,0.0,88,0.00,,,0.00,,2013-02-08 10:42:00,
2013-02-08 05:51:00,36.0,33.0,29.86,East,101,0.0,0.0,88,0.00,,,0.00,,2013-02-08 10:51:00,
2013-02-08 06:01:00,36.0,33.0,29.86,ESE,117,5.0,0.0,89,0.00,,,0.00,,2013-02-08 11:01:00,
2013-02-08 06:11:00,36.0,33.0,29.86,ESE,117,5.0,0.0,89,0.00,,,0.00,,2013-02-08 11:11:00,
2013-02-08 06:21:00,36.0,33.0,29.86,SE,135,0.0,0.0,88,0.00,,,0.00,,2013-02-08 11:21:00,
2013-02-08 06:32:00,36.0,33.0,29.85,East,79,0.0,0.0,88,0.00,,,0.00,,2013-02-08 11:32:00,
2013-02-08 06:42:00,36.0,33.0,29.85,East,79,0.0,0.0,88,0.00,,,0.00,,2013-02-08 11:42:00,
2013-02-08 06:52:00,36.0,33.0,29.85,ENE,60,2.0,4.0,89,0.00,,,0.00,,2013-02-08 11:52:00,
2013-02-08 07:02:00,37.0,34.0,29.85,ENE,76,0.0,0.0,88,0.00,,,0.00,,2013-02-08 12:02:00,
2013-02-08 07:11:00,37.0,34.0,29.85,ENE,76,0.0,0.0,88,0.00,,,0.00,,2013-02-08 12:11:00,
2013-02-08 07:22:00,37.0,34.0,29.84,ESE,105,0.0,0.0,88,0.00,,,0.00,,2013-02-08 12:22:00,
2013-02-08 07:33:00,37.0,34.0,29.83,ESE,105,0.0,0.0,88,0.00,,,0.00,,2013-02-08 12:33:00,
2013-02-08 07:42:00,37.0,34.0,29.83,ESE,105,0.0,0.0,88,0.00,,,0.00,,2013-02-08 12:42:00,
2013-02-08 07:52:00,38.0,34.0,29.83,ESE,105,0.0,0.0,87,0.00,,,0.00,,2013-02-08 12:52:00,
2013-02-08 08:02:00,38.0,34.0,29.83,ESE,105,0.0,0.0,86,0.00,,,0.00,,2013-02-08 13:02:00,
2013-02-08 08:12:00,38.0,34.0,29.83,ESE,105,0.0,0.0,86,0.00,,,0.00,,2013-02-08 13:12:00,
2013-02-08 08:22:00,38.0,34.0,29.83,ESE,113,0.0,0.0,86,0.00,,,0.00,,2013-02-08 13:22:00,
2013-02-08 08:32:00,39.0,34.0,29.83,ESE,113,0.0,0.0,83,0.00,,,0.00,,2013-02-08 13:32:00,
2013-02-08 08:42:00,39.0,34.0,29.83,ESE,113,0.0,0.0,83,0.00,,,0.00,,2013-02-08 13:42:00,
2013-02-08 08:51:00,39.0,34.0,29.83,ESE,113,0.0,0.0,83,0.00,,,0.00,,2013-02-08 13:51:00,
2013-02-08 09:02:00,40.0,35.0,29.81,ESE,113,0.0,0.0,82,0.00,,,0.00,,2013-02-08 14:02:00,
2013-02-08 09:11:00,40.0,35.0,29.81,ESE,113,0.0,0.0,82,0.00,,,0.00,,2013-02-08 14:11:00,
2013-02-08 09:22:00,40.0,34.0,29.81,ESE,113,0.0,0.0,80,0.00,,,0.00,,2013-02-08 14:22:00,
2013-02-08 09:32:00,42.0,36.0,29.80,East,98,1.0,0.0,78,0.00,,,0.00,,2013-02-08 14:32:00,
2013-02-08 09:42:00,42.0,36.0,29.80,East,98,1.0,0.0,78,0.00,,,0.00,,2013-02-08 14:42:00,
2013-02-08 09:52:00,43.0,36.0,29.80,East,101,0.0,0.0,76,0.00,,,0.00,,2013-02-08 14:52:00,
2013-02-08 10:02:00,43.0,36.0,29.80,East,101,0.0,0.0,76,0.00,,,0.00,,2013-02-08 15:02:00,
2013-02-08 10:12:00,43.0,36.0,29.80,East,101,0.0,0.0,76,0.00,,,0.00,,2013-02-08 15:12:00,
2013-02-08 10:22:00,43.0,37.0,29.81,East,101,0.0,0.0,79,0.00,,,0.00,,2013-02-08 15:22:00,
2013-02-08 10:32:00,43.0,37.0,29.81,East,101,0.0,0.0,79,0.00,,,0.00,,2013-02-08 15:32:00,
2013-02-08 10:42:00,43.0,37.0,29.81,East,101,0.0,0.0,79,0.00,,,0.00,,2013-02-08 15:42:00,
2013-02-08 10:52:00,41.0,39.0,29.83,East,101,0.0,0.0,93,0.00,,,0.00,,2013-02-08 15:52:00,
2013-02-08 11:02:00,40.0,39.0,29.83,ESE,118,0.0,0.0,97,0.00,,,0.00,,2013-02-08 16:02:00,
2013-02-08 11:11:00,40.0,39.0,29.83,ESE,118,0.0,0.0,97,0.00,,,0.00,,2013-02-08 16:11:00,
2013-02-08 11:22:00,39.0,39.0,29.83,SW,219,0.0,0.0,100,0.05,,,0.00,,2013-02-08 16:22:00,
2013-02-08 11:32:00,39.0,39.0,29.83,SSW,208,0.0,4.0,100,0.05,,,0.00,,2013-02-08 16:32:00,
2013-02-08 11:42:00,39.0,39.0,29.83,SSW,208,0.0,4.0,100,0.05,,,0.00,,2013-02-08 16:42:00,
2013-02-08 11:52:00,39.0,39.0,29.83,SW,215,3.0,0.0,100,0.05,,,0.00,,2013-02-08 16:52:00,
2013-02-08 12:03:00,40.0,40.0,29.83,SW,218,0.0,0.0,100,0.05,,,0.00,,2013-02-08 17:03:00,
2013-02-08 12:12:00,39.0,39.0,29.83,SSE,162,0.0,0.0,100,0.07,,,0.00,,2013-02-08 17:12:00,
2013-02-08 12:23:00,39.0,39.0,29.83,SSE,162,0.0,0.0,100,0.07,,,0.00,,2013-02-08 17:23:00,
2013-02-08 12:33:00,39.0,39.0,29.83,SSE,162,0.0,0.0,100,0.07,,,0.00,,2013-02-08 17:33:00,
2013-02-08 12:42:00,39.0,39.0,29.83,SSE,162,0.0,0.0,100,0.07,,,0.00,,2013-02-08 17:42:00,
2013-02-08 12:53:00,39.0,39.0,29.83,SSE,162,0.0,0.0,100,0.07,,,0.00,,2013-02-08 17:53:00,
2013-02-08 13:02:00,39.0,39.0,29.83,WNW,290,1.0,0.0,100,0.07,,,0.00,,2013-02-08 18:02:00,
2013-02-08 13:10:00,38.0,38.0,29.84,West,263,0.0,8.0,100,0.01,,,0.00,,2013-02-08 18:10:00,
2013-02-08 13:12:00,39.0,39.0,29.83,WNW,290,1.0,0.0,100,0.07,,,0.00,,2013-02-08 18:12:00,
2013-02-08 13:24:00,39.0,39.0,29.83,South,188,1.0,0.0,100,0.07,,,0.00,,2013-02-08 18:24:00,
2013-02-08 13:35:00,38.0,38.0,29.84,West,263,0.0,8.0,100,0.01,,,0.00,,2013-02-08 18:35:00,
2013-02-08 13:43:00,38.0,38.0,29.84,West,263,0.0,8.0,100,0.01,,,0.00,,2013-02-08 18:43:00,
2013-02-08 13:52:00,38.0,38.0,29.84,West,263,0.0,8.0,100,0.01,,,0.00,,2013-02-08 18:52:00,
2013-02-08 14:02:00,38.0,38.0,29.84,West,263,0.0,8.0,100,0.01,,,0.00,,2013-02-08 19:02:00,
2013-02-08 14:33:00,36.0,36.0,29.87,SW,236,0.0,0.0,100,0.00,,,0.00,,2013-02-08 19:33:00,
2013-02-08 14:42:00,36.0,36.0,29.87,SW,236,0.0,0.0,100,0.00,,,0.00,,2013-02-08 19:42:00,
2013-02-08 14:52:00,36.0,36.0,29.88,West,278,4.0,0.0,100,0.00,,,0.00,,2013-02-08 19:52:00,
2013-02-08 15:02:00,35.0,35.0,29.88,WSW,255,0.0,5.0,100,0.00,,,0.00,,2013-02-08 20:02:00,
2013-02-08 15:12:00,35.0,35.0,29.88,WSW,255,0.0,5.0,100,0.00,,,0.00,,2013-02-08 20:12:00,
2013-02-08 15:22:00,35.0,35.0,29.89,North,349,0.0,0.0,100,0.00,,,0.00,,2013-02-08 20:22:00,
2013-02-08 15:32:00,34.0,34.0,29.90,West,274,0.0,10.0,100,0.00,,,0.00,,2013-02-08 20:32:00,
2013-02-08 15:42:00,34.0,34.0,29.90,West,274,0.0,10.0,100,0.00,,,0.00,,2013-02-08 20:42:00,
2013-02-08 15:52:00,34.0,34.0,29.91,West,259,0.0,0.0,98,0.00,,,0.00,,2013-02-08 20:52:00,
2013-02-08 16:02:00,33.0,32.0,29.91,WNW,302,11.0,12.0,96,0.00,,,0.00,,2013-02-08 21:02:00,
2013-02-08 16:11:00,33.0,32.0,29.91,WNW,302,11.0,12.0,96,0.00,,,0.00,,2013-02-08 21:11:00,
2013-02-08 16:22:00,33.0,32.0,29.92,SW,218,1.0,0.0,95,0.00,,,0.00,,2013-02-08 21:22:00,
2013-02-08 16:32:00,33.0,32.0,29.93,SW,231,0.0,0.0,95,0.00,,,0.00,,2013-02-08 21:32:00,
2013-02-08 16:42:00,33.0,32.0,29.93,SW,231,0.0,0.0,95,0.00,,,0.00,,2013-02-08 21:42:00,
2013-02-08 16:52:00,33.0,31.0,29.94,SW,233,5.0,5.0,93,0.00,,,0.00,,2013-02-08 21:52:00,
2013-02-08 17:02:00,33.0,31.0,29.94,SW,233,5.0,5.0,93,0.00,,,0.00,,2013-02-08 22:02:00,
2013-02-08 17:11:00,33.0,31.0,29.94,SW,233,5.0,5.0,93,0.00,,,0.00,,2013-02-08 22:11:00,
2013-02-08 17:22:00,32.0,29.0,29.95,NW,314,7.0,9.0,90,0.00,,,0.00,,2013-02-08 22:22:00,
2013-02-08 17:32:00,32.0,30.0,29.97,West,271,1.0,0.0,91,0.00,,,0.00,,2013-02-08 22:32:00,
2013-02-08 17:42:00,32.0,30.0,29.97,West,271,1.0,0.0,91,0.00,,,0.00,,2013-02-08 22:42:00,
2013-02-08 17:52:00,31.0,28.0,29.98,NNE,27,4.0,4.0,88,0.00,,,0.00,,2013-02-08 22:52:00,
2013-02-08 18:02:00,31.0,28.0,29.99,South,181,5.0,5.0,89,0.00,,,0.00,,2013-02-08 23:02:00,
2013-02-08 18:11:00,31.0,28.0,29.99,South,181,5.0,5.0,89,0.00,,,0.00,,2013-02-08 23:11:00,
2013-02-08 18:21:00,31.0,28.0,30.00,WNW,295,0.0,0.0,87,0.00,,,0.00,,2013-02-08 23:21:00,
2013-02-08 18:32:00,31.0,28.0,30.01,West,271,0.0,0.0,87,0.00,,,0.00,,2013-02-08 23:32:00,
2013-02-08 18:42:00,31.0,28.0,30.01,West,271,0.0,0.0,87,0.00,,,0.00,,2013-02-08 23:42:00,
2013-02-08 18:52:00,30.0,26.0,30.02,West,269,9.0,9.0,85,0.00,,,0.00,,2013-02-08 23:52:00,
2013-02-08 19:02:00,30.0,26.0,30.03,West,259,0.0,0.0,85,0.00,,,0.00,,2013-02-09 00:02:00,
2013-02-08 19:12:00,30.0,26.0,30.03,West,259,0.0,0.0,85,0.00,,,0.00,,2013-02-09 00:12:00,
2013-02-08 19:22:00,30.0,26.0,30.03,West,259,0.0,0.0,85,0.00,,,0.00,,2013-02-09 00:22:00,
2013-02-08 19:32:00,30.0,26.0,30.05,West,280,0.0,10.0,86,0.00,,,0.00,,2013-02-09 00:32:00,
2013-02-08 19:42:00,30.0,26.0,30.05,West,280,0.0,10.0,86,0.00,,,0.00,,2013-02-09 00:42:00,
2013-02-08 19:52:00,29.0,26.0,30.06,WSW,249,1.0,0.0,88,0.00,,,0.00,,2013-02-09 00:52:00,
2013-02-08 20:02:00,29.0,27.0,30.06,NNE,13,3.0,3.0,91,0.00,,,0.00,,2013-02-09 01:02:00,
2013-02-08 20:11:00,29.0,27.0,30.06,NNE,13,3.0,3.0,91,0.00,,,0.00,,2013-02-09 01:11:00,
2013-02-08 20:22:00,29.0,27.0,30.06,NNW,332,3.0,5.0,92,0.00,,,0.00,,2013-02-09 01:22:00,
2013-02-08 20:32:00,29.0,27.0,30.06,NNW,332,3.0,5.0,92,0.00,,,0.00,,2013-02-09 01:32:00,
2013-02-08 20:42:00,29.0,27.0,30.06,NNW,332,3.0,5.0,92,0.00,,,0.00,,2013-02-09 01:42:00,
2013-02-08 20:52:00,28.0,26.0,30.07,WSW,252,7.0,0.0,91,0.00,,,0.00,,2013-02-09 01:52:00,
2013-02-08 21:01:00,28.0,26.0,30.08,West,263,2.0,4.0,91,0.00,,,0.00,,2013-02-09 02:01:00,
2013-02-08 21:11:00,28.0,26.0,30.09,WNW,300,2.0,12.0,92,0.00,,,0.00,,2013-02-09 02:11:00,
2013-02-08 21:21:00,28.0,26.0,30.09,WNW,300,2.0,12.0,92,0.00,,,0.00,,2013-02-09 02:21:00,
2013-02-08 21:32:00,28.0,25.0,30.10,WSW,248,5.0,0.0,90,0.00,,,0.00,,2013-02-09 02:32:00,
2013-02-08 21:42:00,28.0,25.0,30.10,WSW,248,5.0,0.0,90,0.00,,,0.00,,2013-02-09 02:42:00,
2013-02-08 21:52:00,28.0,25.0,30.11,SW,235,2.0,5.0,89,0.00,,,0.00,,2013-02-09 02:52:00,
2013-02-08 22:02:00,28.0,25.0,30.11,SW,236,4.0,0.0,89,0.00,,,0.00,,2013-02-09 03:02:00,
2013-02-08 22:11:00,28.0,25.0,30.11,SW,236,4.0,0.0,89,0.00,,,0.00,,2013-02-09 03:11:00,
2013-02-08 22:12:00,27.0,24.0,30.12,SW,236,6.0,10.0,90,0.00,,,0.00,,2013-02-09 03:12:00,
2013-02-08 22:22:00,28.0,25.0,30.11,WSW,239,1.0,0.0,90,0.00,,,0.00,,2013-02-09 03:22:00,
2013-02-08 22:32:00,27.0,24.0,30.12,SW,236,6.0,10.0,90,0.00,,,0.00,,2013-02-09 03:32:00,
2013-02-08 22:42:00,27.0,24.0,30.12,SW,236,6.0,10.0,90,0.00,,,0.00,,2013-02-09 03:42:00,
2013-02-08 22:52:00,27.0,24.0,30.12,SW,236,6.0,10.0,90,0.00,,,0.00,,2013-02-09 03:52:00,
2013-02-08 23:03:00,27.0,24.0,30.12,SW,236,6.0,10.0,90,0.00,,,0.00,,2013-02-09 04:03:00,
2013-02-08 23:32:00,27.0,25.0,30.14,WNW,298,0.0,0.0,92,0.00,,,0.00,,2013-02-09 04:32:00,
2013-02-08 23:42:00,27.0,25.0,30.14,WNW,298,0.0,0.0,92,0.00,,,0.00,,2013-02-09 04:42:00,
2013-02-08 23:52:00,26.0,24.0,30.14,NW,312,0.0,0.0,92,0.00,,,0.00,,2013-02-09 04:52:00,